1515808800.69,26197,8.5,73528.0,-12.59,-48.91,-48.91,0,*64
1515808801.91,26198,8.5,73528.3,-12.63,-48.49,-48.21,0,*6C
1515808803.15,26199,8.5,73528.0,-12.63,-48.49,-48.35,0,*68
1515808804.4,26200,8.5,73526.8,-12.63,-48.35,-48.21,0,*65
1515808805.64,26201,8.5,73526.8,-12.63,-48.49,-48.35,0,*6A
1515808806.89,26202,8.5,73530.5,-12.59,-48.27,-48.21,0,*6D
1515808808.11,26203,8.5,73530.8,-12.59,-48.49,-48.49,0,*6A
1515808809.35,26204,8.5,73526.8,-12.59,-48.35,-48.21,0,*68
1515808810.59,26205,8.5,73534.3,-12.57,-48.49,-48.63,0,*6A
1515808811.81,26206,8.5,73528.0,-12.59,-48.49,-48.49,0,*6F
1515808813.1,26207,8.5,73528.0,-12.57,-48.27,-48.13,0,*67
1515808814.32,26208,8.5,73526.3,-12.59,-48.49,-48.49,0,*61
1515808815.53,26209,8.5,73530.8,-12.59,-48.55,-48.49,0,*6D
1515808816.75,26210,8.5,73526.8,-12.59,-48.55,-48.49,0,*65
1515808818.0,26211,8.5,73526.5,-12.59,-48.07,-47.79,0,*6F
1515808819.25,26212,8.5,73528.0,-12.59,-48.27,-48.21,0,*6C
1515808820.47,26213,8.5,73528.5,-12.59,-48.49,-48.21,0,*65
1515808821.74,26214,8.5,73528.0,-12.57,-48.27,-48.41,0,*62
1515808822.96,26215,8.5,73526.8,-12.59,-48.21,-48.21,0,*6D
1515808824.23,26216,8.5,73528.0,-12.57,-48.41,-48.27,0,*60
1515808825.5,26217,8.5,73526.5,-12.57,-48.13,-47.99,0,*6C
1515808826.77,26218,8.5,73530.8,-12.57,-48.21,-48.13,0,*6F
1515808828.04,26219,8.5,73524.8,-12.55,-48.13,-47.93,0,*6A
1515808829.29,26220,8.5,73526.0,-12.55,-47.99,-47.79,0,*69
1515808830.53,26221,8.5,73528.5,-12.55,-47.99,-47.79,0,*68
1515808831.8,26222,8.5,73524.5,-12.55,-47.93,-47.79,0,*61
1515808833.05,26223,8.5,73528.5,-12.53,-48.21,-47.99,0,*6E
1515808834.32,26224,8.5,73530.3,-12.53,-48.41,-48.13,0,*62
1515808835.6,26225,8.5,73526.3,-12.53,-47.99,-47.79,0,*6A
1515808836.86,26226,8.5,73528.0,-12.53,-48.27,-47.99,0,*6D
1515808838.12,26227,8.5,73524.8,-12.53,-47.71,-47.51,0,*64
1515808839.39,26228,8.5,73528.3,-12.53,-47.79,-47.57,0,*65
1515808840.66,26229,8.5,73524.3,-12.51,-47.45,-47.23,0,*6A
1515808841.93,26230,8.5,73526.5,-12.49,-47.71,-47.51,0,*69
1515808843.17,26231,8.5,73526.8,-12.51,-48.07,-47.93,0,*61
1515808844.42,26232,8.5,73528.5,-12.49,-48.07,-47.85,0,*6C
1515808845.68,26233,8.5,73524.0,-12.49,-47.93,-47.65,0,*61
1515808846.95,26234,8.5,73526.5,-12.51,-48.13,-47.93,0,*61
1515808848.21,26235,8.5,73528.3,-12.49,-47.93,-47.65,0,*67
1515808849.5,26236,8.5,73524.8,-12.49,-48.13,-47.93,0,*6A
1515808850.79,26237,8.5,73528.0,-12.49,-47.71,-47.45,0,*6B
1515808852.06,26238,8.5,73524.3,-12.49,-47.93,-47.85,0,*64
1515808853.33,26239,8.5,73528.0,-12.45,-47.85,-47.37,0,*67
1515808854.62,26240,8.5,73526.5,-12.45,-47.71,-47.37,0,*62
1515808855.85,26241,8.5,73530.5,-12.45,-47.51,-47.17,0,*63
1515808857.13,26242,8.5,73524.8,-12.45,-47.37,-47.31,0,*64
1515808858.41,26243,8.5,73532.0,-12.45,-47.71,-47.37,0,*61
1515808859.63,26244,8.5,73526.5,-12.43,-47.51,-47.31,0,*64
1515808860.87,26245,8.5,73528.5,-12.43,-47.79,-47.57,0,*6F
1515808862.1,26246,8.5,73526.5,-12.43,-47.79,-47.57,0,*6C
1515808863.34,26247,8.5,73528.3,-12.43,-48.21,-47.93,0,*67
1515808864.58,26248,8.5,73528.8,-12.43,-47.99,-47.79,0,*60
1515808865.84,26249,8.5,73526.8,-12.43,-47.71,-47.37,0,*6D
1515808867.1,26250,8.5,73526.3,-12.43,-47.71,-47.37,0,*65
1515808868.34,26251,8.5,73528.0,-12.43,-47.99,-47.79,0,*68
1515808869.63,26252,8.5,73524.8,-12.41,-47.79,-47.37,0,*6D
1515808870.89,26253,8.5,73526.3,-12.41,-47.79,-47.57,0,*6A
1515808872.15,26254,8.5,73526.5,-12.41,-47.99,-47.79,0,*6F
1515808873.4,26255,8.5,73526.8,-12.39,-48.21,-48.13,0,*6E
1515808874.64,26256,8.5,73526.5,-12.35,-47.85,-47.65,0,*6E
1515808875.91,26257,8.5,73530.3,-12.39,-47.45,-47.23,0,*6D
1515808877.12,26258,8.5,73526.3,-12.39,-47.85,-47.65,0,*6C
1515808878.39,26259,8.5,73524.3,-12.35,-47.65,-47.45,0,*6D
1515808879.65,26260,8.5,73526.8,-12.35,-47.93,-47.65,0,*6C
1515808880.94,26261,8.5,73524.5,-12.35,-47.23,-47.03,0,*66
1515808882.2,26262,8.5,73524.3,-12.35,-47.57,-47.23,0,*64
1515808883.47,26263,8.5,73526.8,-12.35,-47.57,-47.23,0,*65
1515808884.71,26264,8.5,73524.0,-12.35,-47.85,-47.65,0,*6F
1515808885.94,26265,8.5,73524.0,-12.33,-47.65,-47.45,0,*64
1515808887.21,26266,8.5,73528.5,-12.31,-47.57,-47.37,0,*61
1515808888.47,26267,8.5,73526.0,-12.33,-47.93,-47.93,0,*64
1515808889.74,26268,8.5,73524.8,-12.31,-47.79,-47.57,0,*65
1515808891.0,26269,8.5,73528.3,-12.31,-47.79,-47.57,0,*64
1515808892.3,26270,8.5,73526.8,-12.31,-48.27,-48.27,0,*60
1515808893.59,26271,8.5,73524.8,-12.31,-47.79,-47.45,0,*6E
1515808894.86,26272,8.5,73526.8,-12.31,-47.57,-47.23,0,*61
1515808896.13,26273,8.5,73526.8,-12.31,-47.65,-47.37,0,*64
1515808897.4,26274,8.5,73524.5,-12.31,-47.23,-46.97,0,*6A
1515808898.66,26275,8.5,73528.5,-12.27,-47.37,-47.17,0,*60
1515808899.88,26276,8.5,73528.0,-12.29,-47.51,-47.31,0,*69
1515808901.1,26277,8.5,73526.5,-12.29,-48.07,-47.85,0,*6B
1515808902.37,26278,8.5,73526.5,-12.27,-47.57,-47.37,0,*69
1515808903.58,26279,8.5,73528.0,-12.29,-47.85,-47.57,0,*6F
1515808904.82,26280,8.5,73528.0,-12.27,-47.57,-47.17,0,*6C
1515808906.08,26281,8.5,73526.5,-12.27,-47.71,-47.51,0,*6B
1515808907.34,26282,8.5,73530.3,-12.27,-47.79,-47.51,0,*60
1515808908.6,26283,8.5,73524.0,-12.27,-47.79,-47.57,0,*67
1515808909.84,26284,8.5,73528.0,-12.27,-47.85,-47.57,0,*63
1515808911.1,26285,8.5,73526.0,-12.23,-47.65,-47.45,0,*6B
1515808912.35,26286,8.5,73528.0,-12.23,-48.21,-48.21,0,*6A
1515808913.59,26287,8.5,73526.8,-12.27,-48.41,-48.07,0,*6D
1515808914.83,26288,8.5,73528.3,-12.27,-48.21,-48.21,0,*60
1515808916.12,26289,8.5,73526.3,-12.23,-48.35,-48.13,0,*61
1515808917.41,26290,8.5,73530.8,-12.23,-47.93,-47.79,0,*69
1515808918.7,26291,8.5,73524.5,-12.23,-47.79,-47.79,0,*6C
1515808919.98,26292,8.5,73530.8,-12.23,-47.71,-47.45,0,*68
1515808921.25,26293,8.5,73526.8,-12.23,-47.99,-47.79,0,*60
1515808922.52,26294,8.5,73526.8,-12.23,-48.13,-48.21,0,*68
1515808923.78,26295,8.5,73524.5,-12.23,-48.35,-48.21,0,*6D
1515808925.06,26296,8.5,73524.3,-12.23,-48.35,-48.13,0,*6F
1515808926.32,26297,8.5,73530.5,-12.23,-48.35,-48.21,0,*6F
1515808927.6,26298,8.5,73528.0,-12.23,-48.35,-48.13,0,*61
1515808928.87,26299,8.5,73528.5,-12.23,-48.13,-47.99,0,*69
1515808930.13,26300,8.5,73524.8,-12.23,-47.51,-47.23,0,*60
1515808931.36,26301,8.5,73526.8,-12.23,-47.65,-47.31,0,*65
1515808932.62,26302,8.5,73526.0,-12.23,-47.79,-47.65,0,*6A
1515808933.91,26303,8.5,73524.8,-12.23,-47.71,-47.45,0,*61
1515808935.14,26304,8.5,73524.0,-12.23,-47.65,-47.31,0,*60
1515808936.41,26305,8.5,73526.8,-12.23,-48.41,-48.13,0,*67
1515808937.67,26306,8.5,73526.5,-12.23,-47.79,-47.65,0,*6E
1515808938.9,26307,8.5,73528.5,-12.21,-47.93,-47.57,0,*68
1515808940.14,26308,8.5,73526.3,-12.21,-47.57,-47.37,0,*69
1515808941.38,26309,8.5,73526.8,-12.21,-47.65,-47.45,0,*6C
1515808942.61,26310,8.5,73526.5,-12.19,-47.57,-47.17,0,*69
1515808943.88,26311,8.5,73526.0,-12.19,-47.57,-47.37,0,*6A
1515808945.16,26312,8.5,73522.8,-12.19,-47.71,-47.45,0,*68
1515808946.43,26313,8.5,73524.8,-12.19,-47.65,-47.45,0,*6C
1515808947.72,26314,8.5,73526.0,-12.19,-47.71,-47.45,0,*6E
1515808948.93,26315,8.5,73524.8,-12.13,-47.57,-47.31,0,*62
1515808950.17,26316,8.5,73524.8,-12.17,-47.17,-46.89,0,*63
1515808951.38,26317,8.5,73526.8,-12.13,-47.17,-46.97,0,*69
1515808952.65,26318,8.5,73522.8,-12.17,-47.45,-47.37,0,*6E
1515808953.86,26319,8.5,73526.0,-12.13,-47.31,-47.09,0,*65
1515808955.1,26320,8.5,73526.3,-12.13,-47.45,-47.09,0,*6C
1515808956.34,26321,8.5,73524.5,-12.13,-47.79,-47.57,0,*69
1515808957.58,26322,8.5,73528.5,-12.11,-48.21,-47.99,0,*68
1515808958.82,26323,8.5,73530.0,-12.11,-47.99,-47.99,0,*65
1515808960.11,26324,8.5,73528.0,-12.11,-48.13,-47.93,0,*65
1515808961.35,26325,8.5,73526.5,-12.11,-48.41,-48.21,0,*65
1515808962.56,26326,8.5,73530.0,-12.13,-48.55,-48.21,0,*61
1515808963.8,26327,8.5,73528.0,-12.13,-48.55,-48.35,0,*65
1515808965.04,26328,8.5,73530.0,-12.13,-48.35,-48.21,0,*69
1515808966.3,26329,8.5,73528.8,-12.13,-47.93,-47.79,0,*69
1515808967.51,26330,8.5,73530.0,-12.13,-48.41,-48.21,0,*63
1515808968.76,26331,8.5,73524.3,-12.13,-48.55,-48.13,0,*66
1515808970.0,26332,8.5,73526.8,-12.17,-47.99,-47.79,0,*6D
1515808971.26,26333,8.5,73528.3,-12.13,-47.79,-47.71,0,*6E
1515808972.47,26334,8.5,73524.8,-12.13,-48.41,-48.21,0,*67
1515808973.69,26335,8.5,73526.5,-12.13,-48.41,-48.21,0,*66
1515808974.93,26336,8.5,73524.3,-12.13,-48.41,-48.35,0,*60
1515808976.14,26337,8.5,73530.3,-12.13,-48.63,-48.41,0,*62
1515808977.37,26338,8.5,73528.3,-12.13,-48.35,-48.21,0,*68
1515808978.63,26339,8.5,73526.0,-12.13,-47.93,-47.71,0,*60
1515808979.87,26340,8.5,73528.8,-12.17,-48.49,-48.27,0,*6E
1515808981.13,26341,8.5,73526.8,-12.13,-48.13,-47.93,0,*64
1515808982.37,26342,8.5,73530.3,-12.13,-47.99,-47.93,0,*6A
1515808983.59,26343,8.5,73524.8,-12.17,-48.41,-48.21,0,*63
1515808984.82,26344,8.5,73524.3,-12.13,-48.35,-48.21,0,*63
1515808986.06,26345,8.5,73528.3,-12.13,-48.63,-48.35,0,*64
1515808987.3,26346,8.5,73526.5,-12.11,-48.83,-48.63,0,*68
1515808988.55,26347,8.5,73526.0,-12.11,-48.35,-47.99,0,*6E
1515808989.79,26348,8.5,73526.8,-12.13,-48.35,-48.21,0,*6F
1515808991.0,26349,8.5,73526.3,-12.13,-48.41,-48.21,0,*6D
1515808992.21,26350,8.5,73528.8,-12.13,-48.63,-48.41,0,*63
1515808993.45,26351,8.5,73528.3,-12.13,-48.41,-48.13,0,*65
1515808994.71,26352,8.5,73524.5,-12.13,-48.35,-48.13,0,*65
1515808995.92,26353,8.5,73526.3,-12.13,-48.63,-48.49,0,*68
1515808997.14,26354,8.5,73526.0,-12.17,-48.83,-48.63,0,*6D
1515808998.35,26355,8.5,73526.8,-12.13,-48.63,-48.41,0,*66
1515808999.56,26356,8.5,73526.0,-12.17,-48.49,-48.41,0,*69
1515809000.8,26357,8.5,73526.5,-12.13,-48.41,-48.13,0,*63
1515809002.02,26358,8.5,73528.5,-12.13,-48.55,-48.21,0,*68
1515809003.28,26359,8.5,73530.0,-12.13,-48.77,-48.77,0,*6A
1515809004.55,26360,8.5,73524.5,-12.17,-48.69,-48.69,0,*64
1515809005.79,26361,8.5,73528.5,-12.17,-48.69,-48.49,0,*67
1515809007.04,26362,8.5,73528.3,-12.17,-48.69,-48.63,0,*6C
1515809008.26,26363,8.5,73530.0,-12.17,-48.41,-48.07,0,*65
1515809009.47,26364,8.5,73524.5,-12.17,-48.41,-48.07,0,*62
1515809010.72,26365,8.5,73530.3,-12.17,-48.69,-48.41,0,*6B
1515809011.96,26366,8.5,73530.3,-12.13,-48.21,-48.13,0,*67
1515809013.2,26367,8.5,73524.5,-12.13,-48.13,-47.99,0,*6A
1515809014.41,26368,8.5,73526.3,-12.13,-48.41,-48.21,0,*6E
1515809015.66,26369,8.5,73526.8,-12.17,-48.69,-48.63,0,*67
1515809016.87,26370,8.5,73526.3,-12.13,-48.41,-48.21,0,*67
1515809018.11,26371,8.5,73524.3,-12.17,-48.49,-48.27,0,*6C
1515809019.33,26372,8.5,73530.3,-12.17,-48.41,-48.21,0,*61
1515809020.57,26373,8.5,73528.8,-12.13,-48.69,-48.41,0,*68
1515809021.82,26374,8.5,73526.8,-12.13,-48.77,-48.55,0,*65
1515809023.06,26375,8.5,73528.8,-12.17,-48.69,-48.63,0,*6A
1515809024.33,26376,8.5,73524.0,-12.17,-48.91,-48.69,0,*64
1515809025.54,26377,8.5,73526.8,-12.17,-48.49,-48.21,0,*6C
1515809026.75,26378,8.5,73526.8,-12.17,-48.41,-48.21,0,*6B
1515809027.99,26379,8.5,73528.5,-12.13,-48.63,-48.35,0,*6B
1515809029.21,26380,8.5,73526.3,-12.13,-48.41,-48.21,0,*68
1515809030.43,26381,8.5,73526.5,-12.17,-48.21,-48.07,0,*6F
1515809031.65,26382,8.5,73530.3,-12.13,-48.41,-48.07,0,*6E
1515809032.86,26383,8.5,73530.5,-12.13,-48.21,-48.21,0,*6D
1515809034.08,26384,8.5,73526.8,-12.13,-48.41,-48.41,0,*6A
1515809035.32,26385,8.5,73526.5,-12.13,-48.77,-48.63,0,*6E
1515809036.56,26386,8.5,73530.5,-12.17,-48.91,-48.83,0,*6F
1515809037.8,26387,8.5,73526.3,-12.13,-48.77,-48.41,0,*6C
1515809039.03,26388,8.5,73524.3,-12.17,-48.69,-48.49,0,*60
1515809040.27,26389,8.5,73528.5,-12.17,-48.83,-48.69,0,*67
1515809041.48,26390,8.5,73526.8,-12.17,-48.63,-48.41,0,*6B
1515809042.71,26391,8.5,73528.8,-12.17,-48.83,-48.91,0,*69
1515809043.97,26392,8.5,73526.3,-12.17,-48.91,-48.91,0,*69
1515809045.24,26393,8.5,73528.0,-12.13,-48.91,-48.77,0,*64
1515809046.48,26394,8.5,73524.5,-12.17,-48.63,-48.27,0,*6F
1515809047.68,26395,8.5,73526.8,-12.17,-48.49,-48.49,0,*6E
1515809048.96,26396,8.5,73524.3,-12.19,-48.69,-48.55,0,*6C
1515809050.2,26397,8.5,73526.8,-12.17,-48.83,-48.69,0,*68
1515809051.43,26398,8.5,73528.3,-12.17,-48.83,-48.69,0,*67
1515809052.7,26399,8.5,73526.8,-12.19,-48.69,-48.49,0,*6E
1515809053.97,26400,8.5,73526.5,-12.21,-48.77,-48.69,0,*6F
1515809055.25,26401,8.5,73530.5,-12.19,-48.35,-48.13,0,*6E
1515809056.54,26402,8.5,73526.5,-12.19,-48.35,-48.27,0,*6A
1515809057.83,26403,8.5,73522.8,-12.19,-48.77,-48.69,0,*67
1515809059.11,26404,8.5,73526.8,-12.19,-48.69,-48.55,0,*60
1515809060.39,26405,8.5,73524.0,-12.19,-48.35,-48.27,0,*6D
1515809061.66,26406,8.5,73526.8,-12.19,-48.13,-48.07,0,*68
1515809062.93,26407,8.5,73526.0,-12.19,-48.49,-48.27,0,*64
1515809064.15,26408,8.5,73528.5,-12.17,-48.63,-48.63,0,*6D
1515809065.38,26409,8.5,73526.0,-12.17,-48.27,-48.21,0,*6A
1515809066.6,26410,8.5,73524.0,-12.17,-48.21,-47.99,0,*68
1515809067.84,26411,8.5,73520.5,-12.13,-47.85,-47.79,0,*62
1515809069.05,26412,8.5,73524.0,-12.13,-48.55,-48.41,0,*67
1515809070.29,26413,8.5,73524.0,-12.13,-48.63,-48.69,0,*69
1515809071.55,26414,8.5,73526.0,-12.13,-48.35,-48.13,0,*60
1515809072.82,26415,8.5,73524.0,-12.13,-48.13,-48.13,0,*65
1515809074.08,26416,8.5,73520.0,-12.13,-48.13,-47.93,0,*61
1515809075.35,26417,8.5,73526.3,-12.13,-47.93,-47.79,0,*63
1515809076.58,26418,8.5,73524.0,-12.13,-47.71,-47.57,0,*6C
1515809077.81,26419,8.5,73524.8,-12.13,-47.71,-47.57,0,*6D
1515809079.05,26420,8.5,73524.0,-12.13,-47.51,-47.45,0,*66
1515809080.31,26421,8.5,73524.0,-12.13,-47.71,-47.45,0,*65
1515809081.6,26422,8.5,73524.0,-12.11,-47.79,-47.71,0,*6B
1515809082.86,26423,8.5,73526.0,-12.09,-48.13,-47.93,0,*6C
1515809084.09,26424,8.5,73522.3,-12.09,-48.35,-48.21,0,*69
1515809085.33,26425,8.5,73524.0,-12.09,-48.21,-48.13,0,*6C
1515809086.56,26426,8.5,73524.5,-12.09,-48.13,-47.99,0,*63
1515809087.85,26427,8.5,73526.8,-12.11,-47.93,-47.71,0,*6A
1515809089.09,26428,8.5,73524.3,-12.09,-48.13,-47.99,0,*6D
1515809090.31,26429,8.5,73522.0,-12.09,-48.35,-47.99,0,*68
1515809091.55,26430,8.5,73526.3,-12.11,-48.63,-48.41,0,*60
1515809092.81,26431,8.5,73524.3,-12.09,-48.35,-48.13,0,*6C
1515809094.02,26432,8.5,73524.5,-12.09,-48.41,-48.41,0,*6B
1515809095.27,26433,8.5,73524.3,-12.09,-47.79,-47.93,0,*6E
1515809096.51,26434,8.5,73520.8,-12.09,-47.57,-47.45,0,*6E
1515809097.78,26435,8.5,73520.8,-12.09,-47.79,-47.45,0,*63
1515809099.04,26436,8.5,73526.5,-12.07,-47.85,-47.71,0,*6A
1515809100.31,26437,8.5,73526.5,-12.07,-48.35,-48.07,0,*61
1515809101.59,26438,8.5,73520.3,-12.07,-48.35,-48.13,0,*6B
1515809102.88,26439,8.5,73522.0,-12.07,-48.27,-48.13,0,*69
1515809104.15,26440,8.5,73524.5,-12.07,-48.49,-48.13,0,*6F
1515809105.39,26441,8.5,73526.3,-12.05,-48.49,-48.13,0,*6C
1515809106.63,26442,8.5,73528.8,-12.05,-48.27,-48.07,0,*62
1515809107.92,26443,8.5,73524.0,-12.07,-48.35,-48.13,0,*67
1515809109.18,26444,8.5,73522.8,-12.07,-48.49,-48.35,0,*6F
1515809110.42,26445,8.5,73528.5,-12.05,-48.55,-48.35,0,*61
1515809111.69,26446,8.5,73526.3,-12.07,-48.83,-48.77,0,*6D
1515809112.92,26447,8.5,73526.3,-12.07,-48.97,-48.83,0,*62
1515809114.22,26448,8.5,73524.8,-12.07,-48.77,-48.69,0,*67
1515809115.46,26449,8.5,73526.5,-12.07,-48.55,-48.49,0,*64
1515809116.67,26450,8.5,73526.5,-12.05,-48.55,-48.49,0,*6E
1515809117.93,26451,8.5,73524.3,-12.07,-48.83,-48.77,0,*6B
1515809119.2,26452,8.5,73526.8,-12.07,-48.55,-48.35,0,*65
1515809120.47,26453,8.5,73524.8,-12.07,-48.69,-48.55,0,*6D
1515809121.74,26454,8.5,73520.5,-12.05,-48.77,-48.69,0,*68
1515809122.98,26455,8.5,73524.8,-12.09,-48.55,-48.35,0,*6C
1515809124.19,26456,8.5,73528.0,-12.09,-48.41,-48.21,0,*6F
1515809125.4,26457,8.5,73526.0,-12.09,-48.55,-48.41,0,*6D
1515809126.6,26458,8.44,73520.5,-12.09,-48.83,-48.83,0,*67
1515809127.84,26459,8.5,73526.5,-12.09,-49.05,-48.91,0,*6A
1515809129.05,26460,8.5,73524.0,-12.09,-49.05,-48.83,0,*63
1515809130.28,26461,8.5,73524.3,-12.09,-49.25,-49.11,0,*6A
1515809131.56,26462,8.5,73526.3,-12.11,-48.77,-48.55,0,*67
1515809132.83,26463,8.5,73526.8,-12.11,-48.77,-48.55,0,*66
1515809134.04,26464,8.5,73524.3,-12.09,-48.41,-48.21,0,*6E
1515809135.28,26465,8.5,73526.0,-12.09,-48.55,-48.35,0,*6F
1515809136.48,26466,8.44,73520.5,-12.09,-48.55,-48.41,0,*6F
1515809137.72,26467,8.5,73522.5,-12.09,-48.55,-48.35,0,*6D
1515809139.0,26468,8.5,73526.0,-12.07,-48.35,-48.27,0,*69
1515809140.24,26469,8.5,73526.5,-12.09,-48.77,-48.63,0,*60
1515809141.45,26470,8.5,73526.8,-12.09,-48.55,-48.41,0,*68
1515809142.71,26471,8.5,73524.5,-12.09,-48.35,-48.35,0,*6C
1515809143.94,26472,8.44,73520.5,-12.09,-48.35,-48.21,0,*6A
1515809145.2,26473,8.5,73526.8,-12.09,-48.35,-48.13,0,*6A
1515809146.41,26474,8.5,73522.8,-12.09,-48.41,-48.21,0,*6F
1515809147.65,26475,8.5,73524.8,-12.09,-48.77,-48.63,0,*6D
1515809148.88,26476,8.44,73524.3,-12.09,-48.77,-48.41,0,*6E
1515809150.12,26477,8.5,73526.8,-12.07,-48.55,-48.49,0,*69
1515809151.38,26478,8.5,73528.3,-12.07,-48.55,-48.69,0,*64
1515809152.62,26479,8.5,73526.3,-12.07,-48.55,-48.49,0,*67
1515809153.86,26480,8.5,73526.5,-12.07,-48.83,-48.55,0,*67
1515809155.08,26481,8.5,73530.5,-12.09,-48.63,-48.63,0,*63
1515809156.34,26482,8.5,73530.8,-12.11,-48.91,-48.83,0,*6A
1515809157.57,26483,8.5,73524.0,-12.09,-49.05,-48.91,0,*6D
1515809158.78,26484,8.5,73524.3,-12.09,-48.83,-48.83,0,*66
1515809159.99,26485,8.5,73526.5,-12.09,-49.05,-48.83,0,*68
1515809161.22,26486,8.44,73522.8,-12.09,-48.83,-48.77,0,*6F
1515809162.46,26487,8.5,73526.0,-12.09,-48.55,-48.35,0,*63
1515809163.67,26488,8.5,73522.0,-12.09,-48.83,-48.63,0,*64
1515809164.93,26489,8.5,73524.3,-12.11,-48.91,-48.63,0,*6F
1515809166.14,26490,8.5,73524.8,-12.09,-48.63,-48.41,0,*63
1515809167.41,26491,8.5,73524.5,-12.11,-48.77,-48.41,0,*6E
1515809168.65,26492,8.5,73526.3,-12.09,-48.77,-48.55,0,*61
1515809169.92,26493,8.5,73526.0,-12.11,-48.77,-48.55,0,*69
1515809171.16,26494,8.5,73526.3,-12.11,-48.63,-48.41,0,*6E
1515809172.37,26495,8.5,73524.3,-12.09,-48.63,-48.41,0,*66
1515809173.64,26496,8.5,73524.3,-12.11,-48.55,-48.35,0,*6A
1515809174.87,26497,8.5,73528.5,-12.09,-48.55,-48.35,0,*62
1515809176.13,26498,8.5,73524.8,-12.09,-48.77,-48.77,0,*6B
1515809177.37,26499,8.5,73524.8,-12.09,-48.77,-48.63,0,*6F
1515809178.62,26500,8.5,73526.3,-12.09,-48.77,-48.55,0,*6B
1515809179.85,26501,8.5,73526.8,-12.09,-48.41,-48.13,0,*6D
1515809181.07,26502,8.5,73526.3,-12.09,-48.63,-48.55,0,*6C
1515809182.28,26503,8.5,73524.8,-12.09,-48.63,-48.55,0,*6D
1515809183.52,26504,8.5,73526.8,-12.09,-48.83,-48.77,0,*64
1515809184.75,26505,8.5,73528.0,-12.09,-48.41,-48.13,0,*69
1515809185.97,26506,8.44,73522.3,-12.09,-48.63,-48.63,0,*6D
1515809187.2,26507,8.44,73522.8,-12.09,-48.91,-48.83,0,*6F
1515809188.41,26508,8.5,73524.0,-12.09,-48.83,-48.55,0,*68
1515809189.65,26509,8.5,73526.8,-12.09,-48.83,-48.77,0,*69
1515809190.91,26510,8.5,73530.5,-12.07,-48.83,-48.77,0,*6F
1515809192.12,26511,8.5,73526.5,-12.09,-48.63,-48.55,0,*6E
1515809193.39,26512,8.5,73524.3,-12.11,-48.41,-48.35,0,*62
1515809194.61,26513,8.5,73528.8,-12.09,-48.35,-47.99,0,*60
1515809195.82,26514,8.5,73526.5,-12.09,-48.21,-47.99,0,*62
1515809197.06,26515,8.44,73522.8,-12.09,-48.13,-47.99,0,*62
1515809198.32,26516,8.5,73526.0,-12.09,-48.91,-48.91,0,*6C
1515809199.55,26517,8.5,73524.5,-12.09,-48.83,-48.77,0,*66
1515809200.79,26518,8.5,73530.0,-12.09,-48.77,-48.55,0,*62
1515809202.0,26519,8.5,73526.3,-12.09,-48.55,-48.41,0,*66
1515809203.22,26520,8.5,73524.0,-12.05,-48.83,-48.55,0,*6E
1515809204.48,26521,8.5,73524.5,-12.07,-48.97,-48.77,0,*68
1515809205.75,26522,8.5,73526.3,-12.07,-48.49,-48.35,0,*6E
1515809206.99,26523,8.5,73526.8,-12.07,-48.97,-48.83,0,*61
1515809208.22,26524,8.5,73526.0,-12.09,-48.91,-48.83,0,*6E
1515809209.45,26525,8.5,73524.8,-12.09,-48.55,-48.35,0,*6A
1515809210.71,26526,8.5,73522.8,-12.09,-48.91,-48.91,0,*6F
1515809211.92,26527,8.5,73526.3,-12.09,-48.63,-48.63,0,*6E
1515809213.16,26528,8.5,73524.8,-12.09,-48.91,-48.83,0,*62
1515809214.42,26529,8.44,73520.5,-12.11,-48.55,-48.35,0,*6F
1515809215.63,26530,8.5,73526.5,-12.09,-48.41,-48.21,0,*6E
1515809216.86,26531,8.5,73522.8,-12.09,-48.35,-47.99,0,*60
1515809218.09,26532,8.5,73524.5,-12.09,-48.41,-48.35,0,*69
1515809219.35,26533,8.5,73520.5,-12.09,-48.35,-48.13,0,*6F
1515809220.56,26534,8.44,73520.5,-12.09,-48.41,-48.21,0,*6A
1515809221.79,26535,8.5,73528.3,-12.09,-48.55,-48.35,0,*6B
1515809223.01,26536,8.5,73530.8,-12.09,-48.63,-48.55,0,*6B
1515809224.26,26537,8.5,73526.5,-12.07,-48.55,-48.55,0,*61
1515809225.49,26538,8.5,73524.5,-12.07,-48.55,-48.49,0,*63
1515809226.77,26539,8.5,73526.0,-12.07,-48.69,-48.55,0,*60
1515809228.01,26540,8.5,73526.5,-12.05,-48.49,-48.27,0,*6B
1515809229.28,26541,8.5,73526.3,-12.07,-48.49,-48.13,0,*6F
1515809230.54,26542,8.5,73526.5,-12.07,-48.07,-47.93,0,*61
1515809231.81,26543,8.5,73524.3,-12.07,-48.07,-47.93,0,*60
1515809233.1,26544,8.5,73524.3,-12.07,-48.35,-48.13,0,*61
1515809234.37,26545,8.5,73524.0,-12.07,-48.69,-48.55,0,*6B
1515809235.61,26546,8.5,73526.5,-12.05,-48.49,-48.27,0,*6D
1515809236.88,26547,8.5,73524.3,-12.07,-48.49,-48.35,0,*6D
1515809238.11,26548,8.5,73526.3,-12.05,-48.83,-48.77,0,*60
1515809239.38,26549,8.5,73526.8,-12.05,-48.77,-48.69,0,*65
1515809240.62,26550,8.44,73522.8,-12.07,-48.55,-48.49,0,*6D
1515809241.84,26551,8.5,73526.8,-12.05,-48.49,-48.07,0,*69
1515809243.08,26552,8.5,73526.8,-12.05,-48.27,-48.07,0,*62
1515809244.35,26553,8.5,73524.8,-12.07,-48.35,-48.07,0,*62
1515809245.61,26554,8.44,73526.0,-12.05,-48.35,-48.13,0,*62
1515809246.85,26555,8.5,73526.3,-12.05,-48.55,-48.27,0,*62
1515809248.11,26556,8.5,73526.0,-12.05,-48.35,-48.13,0,*60
1515809249.41,26557,8.5,73526.5,-12.01,-48.69,-48.69,0,*61
1515809250.69,26558,8.5,73524.0,-12.05,-48.69,-48.69,0,*6A
1515809251.94,26559,8.5,73526.8,-12.05,-48.69,-48.55,0,*64
1515809253.18,26560,8.5,73526.0,-12.05,-48.69,-48.49,0,*63
1515809254.42,26561,8.5,73528.3,-12.05,-48.97,-48.77,0,*6E
1515809255.71,26562,8.5,73528.5,-12.07,-48.77,-48.77,0,*61
1515809256.96,26563,8.44,73522.5,-12.01,-48.63,-48.41,0,*66
1515809258.23,26564,8.5,73524.3,-12.05,-48.77,-48.69,0,*6A
1515809259.46,26565,8.5,73526.8,-12.07,-48.55,-48.49,0,*6B
1515809260.76,26566,8.5,73528.3,-12.07,-48.77,-48.77,0,*65
1515809262.02,26567,8.5,73528.5,-12.07,-48.69,-48.49,0,*66
1515809263.3,26568,8.5,73526.8,-12.07,-48.69,-48.55,0,*64
1515809264.57,26569,8.5,73528.8,-12.05,-48.77,-48.69,0,*67
1515809265.84,26570,8.5,73526.5,-12.01,-48.91,-48.63,0,*69
1515809267.08,26571,8.5,73524.8,-12.05,-48.83,-48.77,0,*6A
1515809268.37,26572,8.5,73528.8,-12.07,-48.69,-48.35,0,*69
1515809269.64,26573,8.5,73526.0,-12.07,-48.35,-48.07,0,*60
1515809270.91,26574,8.5,73526.0,-12.07,-48.69,-48.55,0,*69
1515809272.18,26575,8.5,73524.3,-12.07,-48.77,-48.49,0,*6A
1515809273.42,26576,8.44,73522.3,-12.05,-48.49,-48.35,0,*6D
1515809274.66,26577,8.44,73524.8,-12.05,-48.49,-48.35,0,*6C
1515809275.92,26578,8.44,73522.3,-12.07,-48.69,-48.49,0,*68
1515809277.19,26579,8.5,73526.5,-12.07,-48.49,-48.27,0,*63
1515809278.41,26580,8.5,73526.3,-12.05,-48.55,-48.55,0,*6F
1515809279.68,26581,8.5,73524.8,-12.05,-48.69,-48.69,0,*6E
1515809280.92,26582,8.5,73524.0,-12.05,-49.25,-49.19,0,*62
1515809282.16,26583,8.44,73524.3,-12.07,-49.05,-48.83,0,*61
1515809283.37,26584,8.5,73526.5,-12.05,-48.97,-48.83,0,*6E
1515809284.63,26585,8.5,73526.0,-12.07,-48.83,-48.77,0,*63
1515809285.87,26586,8.5,73526.8,-12.05,-48.83,-48.69,0,*6D
1515809287.14,26587,8.5,73526.3,-12.07,-48.55,-48.27,0,*6F
1515809288.43,26588,8.5,73522.0,-12.07,-48.77,-48.77,0,*65
1515809289.68,26589,8.5,73524.5,-12.07,-49.05,-49.05,0,*64
1515809290.97,26590,8.5,73524.3,-12.07,-48.77,-48.69,0,*63
1515809292.21,26591,8.5,73524.0,-12.07,-48.97,-48.83,0,*68
1515809293.45,26592,8.5,73524.8,-12.07,-49.05,-48.83,0,*61
1515809294.71,26593,8.44,73520.8,-12.07,-48.83,-48.69,0,*6B
1515809296.01,26594,8.5,73524.8,-12.07,-48.69,-48.69,0,*68
1515809297.25,26595,8.5,73524.8,-12.07,-48.83,-48.83,0,*69
1515809298.48,26596,8.5,73524.5,-12.07,-49.05,-48.97,0,*60
1515809299.78,26597,8.5,73526.3,-12.07,-48.69,-48.69,0,*6B
1515809301.03,26598,8.44,73526.5,-12.07,-48.55,-48.55,0,*64
1515809302.29,26599,8.5,73526.3,-12.09,-49.11,-48.91,0,*62
1515809303.55,26600,8.44,73522.5,-12.09,-49.11,-48.91,0,*61
1515809304.82,26601,8.5,73526.8,-12.11,-48.77,-48.55,0,*60
1515809306.03,26602,8.5,73526.0,-12.09,-48.83,-48.83,0,*6A
1515809307.29,26603,8.5,73528.5,-12.09,-48.77,-48.77,0,*6B